Welcome to the New NWS' Forecast!
Most changes are behind the scenes, but click here for differences you might notice.

Regional Weather Roundup (RWR)

Issued by National Weather Service (NWS)

                            
659 
ASUS46 KSEW 150010
RWRWA 

WASHINGTON REGIONAL WEATHER ROUNDUP
NATIONAL WEATHER SERVICE SEATTLE WA
500 PM PDT SAT JUL 14 2018

NOTE:"FAIR" INDICATES FEW OR NO CLOUDS BELOW 12,000 FEET WITH NO 
SIGNIFICANT WEATHER AND/OR OBSTRUCTIONS TO VISIBILITY.

WAZ507-509-555>559-150100-
SEATTLE, TACOMA, EVERETT, AND VICINITY
  
CITY           SKY/WX    TMP DP  RH WIND       PRES   REMARKS
EVERETT        SUNNY     79  53  40 NW10      30.09F                  
6HR MIN TEMP:  68; 6HR MAX TEMP:  80;                                

BOEING FIELD   SUNNY     83  51  33 NW9       30.05F                  
6HR MIN TEMP:  72; 6HR MAX TEMP:  84;                                

RENTON         SUNNY     85  54  34 NW12      30.05F                  
6HR MIN TEMP:  73; 6HR MAX TEMP:  85;                                

SEATAC AIRPORT SUNNY     87  51  28 N10       30.07F                  
6HR MIN TEMP:  73; 6HR MAX TEMP:  87;                                

JBLM-MCCHORD   SUNNY     84  59  42 N10       30.06F                  
6HR MIN TEMP:  73; 6HR MAX TEMP:  85;                                

PUYALLUP       FAIR      86  54  32 VRB5G12   30.07F                  
BREMERTON      SUNNY     84  52  33 NE10      30.07F                  
6HR MIN TEMP:  73; 6HR MAX TEMP:  85;                                

JBLM-FT LEWIS  SUNNY     85  56  37 N9        30.06F                  
6HR MIN TEMP:  73; 6HR MAX TEMP:  85;                                

TACOMA NARROWS SUNNY     80  50  34 N10       30.07F                  
6HR MIN TEMP:  69; 6HR MAX TEMP:  81;                                

$$
 
WAZ001-503-506-510-514-515-150100-
NORTH INTERIOR
  
CITY           SKY/WX    TMP DP  RH WIND       PRES   REMARKS
BELLINGHAM     SUNNY     79  56  45 VRB7      30.08F                  
6HR MIN TEMP:  75; 6HR MAX TEMP:  82;                                

FRIDAY HARBOR  SUNNY     85  46  25 N10       30.09F                  
6HR MIN TEMP:  73; 6HR MAX TEMP:  85;                                

EASTSOUND      SUNNY     73  54  49 N5        30.09F                  
PORT ANGELES   SUNNY     84  44  24 VRB3      30.11F                  
6HR MIN TEMP:  71; 6HR MAX TEMP:  84;                                

EDIZ HOOK      FAIR      78  49  36 CALM      30.09F                  
6HR MIN TEMP:  66; 6HR MAX TEMP:  78;                                

PORT TOWNSEND  FAIR      81  52  36 NW7G14    30.09F                  
NAS WHIDBEY    SUNNY     73  52  47 W9        30.12F                  
6HR MIN TEMP:  64; 6HR MAX TEMP:  73;                                

ARLINGTON      SUNNY     82  55  39 NW12      30.07F                  
6HR MIN TEMP:  72; 6HR MAX TEMP:  83;                                

BURLINGTON     SUNNY     77  54  44 W13       30.07F                  
$$
 
WAZ020-022-039-040-504-511-512-150100-
SOUTHWEST INTERIOR
  
CITY           SKY/WX    TMP DP  RH WIND       PRES   REMARKS
SHELTON        SUNNY     88  54  31 SE12      30.03F                  
6HR MIN TEMP:  73; 6HR MAX TEMP:  89;                                

OLYMPIA        SUNNY     86  49  27 NE8G18    30.06F                  
6HR MIN TEMP:  73; 6HR MAX TEMP:  88;                                

CHEHALIS       FAIR      88  54  31 VRB6G15   30.04F                  
KELSO          NOT AVBL                                               
VANCOUVER      SUNNY     91  46  21 W7        29.98F                  
6HR MIN TEMP:  72; 6HR MAX TEMP:  91;                                

SCAPPOOSE, OR  SUNNY     91  49  23 N8        29.98F                  
6HR MIN TEMP:  73; 6HR MAX TEMP:  92;                                

PORTLAND, OR   MOSUNNY   91  45  20 W9        29.99F                  
6HR MIN TEMP:  72; 6HR MAX TEMP:  92;                                

$$
 
WAZ021-516-517-150100-
WASHINGTON COAST
  
CITY           SKY/WX    TMP DP  RH WIND       PRES   REMARKS
FORKS          SUNNY     77  51  40 NW10      30.10F                  
6HR MIN TEMP:  71; 6HR MAX TEMP:  79;                                

HOQUIAM        SUNNY     73  58  59 SW14      30.07F                  
6HR MIN TEMP:  66; 6HR MAX TEMP:  77;                                

ASTORIA, OR    SUNNY     72  57  59 W12       30.07F                  
6HR MIN TEMP:  65; 6HR MAX TEMP:  74;                                

$$
 
WAZ019-023-024-040-567>569-150100-
CASCADE MOUNTAINS AND COLUMBIA GORGE
  
CITY           SKY/WX    TMP DP  RH WIND       PRES   REMARKS
STAMPEDE PASS  SUNNY     77  51  40 VRB5      30.21S                  
6HR MIN TEMP:  74; 6HR MAX TEMP:  82;                                

TROUTDALE, OR  SUNNY     91  49  23 W8        29.98F                  
6HR MIN TEMP:  73; 6HR MAX TEMP:  91;                                

HOOD RIVER, OR CLEAR     95  46  18 CALM      29.98F HX  91           
THE DALLES, OR SUNNY    100  44  14 CALM      29.94F HX  96           
6HR MIN TEMP:  85; 6HR MAX TEMP: 101;                                

$$

WAZ026-027-041>044-520-521-150100-
EAST SLOPES
  
CITY           SKY/WX    TMP DP  RH WIND       PRES   REMARKS
OMAK           SUNNY     90  30  11 N14G20    30.07F                  
6HR MIN TEMP:  81; 6HR MAX TEMP:  91;                                

WENATCHEE      SUNNY     90  42  18 E5        30.02F                  
6HR MIN TEMP:  81; 6HR MAX TEMP:  91;                                

ELLENSBURG     SUNNY     93  42  17 VRB5      30.06F                  
6HR MIN TEMP:  85; 6HR MAX TEMP:  93;                                

YAKIMA         SUNNY     91  40  16 SE5       30.03F                  
6HR MIN TEMP:  85; 6HR MAX TEMP:  93;                                

SUNNYSIDE ARPT CLEAR     91  49  23 SW3       30.02F                  
6HR MIN TEMP:  85; 6HR MAX TEMP:  92;                                

YAKIMA TC        N/A     92  36  14 SW3       30.02F                  
6HR MIN TEMP:  85; 6HR MAX TEMP:  93;                                

$$

WAZ028-034-035-150100-
COLUMBIA BASIN
  
CITY           SKY/WX    TMP DP  RH WIND       PRES   REMARKS
EPHRATA        SUNNY     93   5   4 N13G22    30.04F                  
6HR MIN TEMP:  84; 6HR MAX TEMP:  93;                                

MOSES LAKE     SUNNY     94  10   4 N14G21    30.04F                  
6HR MIN TEMP:  85; 6HR MAX TEMP:  94;                                

PASCO          SUNNY     93  47  20 N13       30.00F                  
6HR MIN TEMP:  86; 6HR MAX TEMP:  94;                                

RICHLAND ARPT  CLEAR     96  36  12 N9        30.00F HX  91           
6HR MIN TEMP:  89; 6HR MAX TEMP:  96;                                

HERMISTON, OR  SUNNY     97  42  15 N5        29.99F HX  93           
6HR MIN TEMP:  87; 6HR MAX TEMP:  98;                                

$$

WAZ036>038-150100-
NORTHEAST WASHINGTON
  
CITY           SKY/WX    TMP DP  RH WIND       PRES   REMARKS
SPOKANE GEIGER MOSUNNY   87  18   8 VRB6      30.08F                  
6HR MIN TEMP:  80; 6HR MAX TEMP:  88;                                

SPOKANE FELTS  SUNNY     89  23   9 VRB6      30.05F                  
6HR MIN TEMP:  81; 6HR MAX TEMP:  91;                                

FAIRCHILD AFB  SUNNY     86  21   9 W8        30.09S                  
6HR MIN TEMP:  80; 6HR MAX TEMP:  86;                                

COEURDALENE,ID SUNNY     88  33  14 W9G18     30.08S                  
6HR MIN TEMP:  80; 6HR MAX TEMP:  88;                                

DEER PARK      SUNNY     88  25  10 NW10      30.07F                  
6HR MIN TEMP:  81; 6HR MAX TEMP:  88;                                

$$

WAZ029>033-150100-
SOUTHEAST WASHINGTON
  
CITY           SKY/WX    TMP DP  RH WIND       PRES   REMARKS
PULLMAN        SUNNY     86  44  23 W6        30.10F                  
6HR MIN TEMP:  77; 6HR MAX TEMP:  87;                                

LEWISTON, ID   SUNNY     94  42  16 NW9       30.00F HX  90           
6HR MIN TEMP:  88; 6HR MAX TEMP:  97;                                

WALLA WALLA    SUNNY     94  41  16 NW13G24   30.01F HX  90           
6HR MIN TEMP:  84; 6HR MAX TEMP:  95;                                

PENDLETON, OR  SUNNY     93  41  16 N13       30.03F                  
6HR MIN TEMP:  83; 6HR MAX TEMP:  95;                                

$$